Total_Precipitation_Accumulation
0.00 0.00 0.00 0.00 0.00 0.00 0.00 0.00 0.00 0.00 0.00 0.00 0.00 0.01 0.01 0.02 0.04 0.01 0.02 0.07 0.07 0.06 0.03 0.02 0.00 0.03 0.02 0.02 0.01 0.00 0.00 0.00 0.00 0.00 0.00 0.00 0.00 0.00 0.00 0.00 0.00 0.00 0.00
0.00 0.00 0.00 0.00 0.00 0.00 0.00 0.00 0.00 0.00 0.00 0.00 0.00 0.00 0.02 0.01 0.05 0.09 0.03 0.02 0.03 0.03 0.02 0.01 0.00 0.01 0.03 0.02 0.02 0.00 0.00 0.00 0.00 0.00 0.00 0.00 0.00 0.00 0.00 0.00 0.00 0.00 0.00
0.00 0.00 0.00 0.00 0.00 0.00 0.00 0.00 0.00 0.00 0.00 0.00 0.00 0.00 0.00 0.04 0.08 0.27 0.26 0.04 0.03 0.01 0.01 0.00 0.00 0.00 0.02 0.01 0.01 0.00 0.00 0.00 0.00 0.00 0.00 0.00 0.00 0.00 0.00 0.00 0.00 0.00 0.00
0.00 0.00 0.00 0.00 0.00 0.00 0.00 0.00 0.00 0.00 0.00 0.00 0.00 0.00 0.00 0.01 0.04 0.12 0.54 0.20 0.09 0.05 0.03 0.01 0.01 0.00 0.02 0.02 0.01 0.00 0.00 0.00 0.00 0.00 0.00 0.00 0.00 0.00 0.00 0.00 0.00 0.00 0.00
0.00 0.00 0.00 0.00 0.00 0.00 0.00 0.00 0.00 0.00 0.00 0.00 0.00 0.00 0.00 0.01 0.03 0.15 0.50 0.70 0.39 0.21 0.08 0.03 0.02 0.02 0.02 0.05 0.03 0.02 0.03 0.02 0.01 0.00 0.00 0.00 0.00 0.00 0.00 0.00 0.00 0.00 0.00
0.00 0.00 0.00 0.00 0.00 0.00 0.00 0.00 0.00 0.00 0.00 0.00 0.00 0.00 0.01 0.01 0.02 0.12 0.34 0.90 0.82 0.50 0.27 0.09 0.04 0.04 0.06 0.09 0.09 0.07 0.04 0.07 0.04 0.01 0.00 0.00 0.00 0.00 0.00 0.00 0.00 0.00 0.00
0.00 0.00 0.00 0.00 0.00 0.00 0.00 0.00 0.00 0.00 0.00 0.00 0.00 0.00 0.00 0.00 0.00 0.03 0.12 0.35 0.79 0.71 0.47 0.21 0.10 0.10 0.11 0.13 0.13 0.15 0.10 0.06 0.07 0.02 0.01 0.00 0.00 0.00 0.00 0.00 0.00 0.00 0.00
0.00 0.00 0.00 0.00 0.00 0.00 0.00 0.00 0.00 0.00 0.00 0.00 0.01 0.00 0.00 0.00 0.00 0.01 0.04 0.09 0.20 0.44 0.48 0.39 0.19 0.16 0.15 0.15 0.13 0.14 0.13 0.08 0.05 0.04 0.03 0.02 0.00 0.00 0.01 0.00 0.00 0.00 0.00
0.00 0.00 0.00 0.00 0.00 0.00 0.00 0.00 0.00 0.00 0.00 0.00 0.00 0.00 0.00 0.00 0.00 0.00 0.02 0.11 0.08 0.20 0.33 0.40 0.35 0.24 0.18 0.13 0.10 0.08 0.06 0.06 0.03 0.02 0.03 0.02 0.02 0.04 0.03 0.02 0.01 0.01 0.00
0.00 0.00 0.00 0.00 0.00 0.00 0.00 0.00 0.00 0.00 0.00 0.00 0.00 0.00 0.00 0.00 0.00 0.00 0.00 0.03 0.04 0.09 0.11 0.27 0.30 0.26 0.18 0.10 0.07 0.04 0.03 0.03 0.01 0.00 0.00 0.00 0.00 0.01 0.01 0.01 0.01 0.01 0.00
0.01 0.00 0.00 0.00 0.00 0.00 0.00 0.00 0.00 0.00 0.00 0.00 0.00 0.00 0.00 0.00 0.00 0.00 0.00 0.00 0.00 0.02 0.04 0.07 0.23 0.22 0.13 0.06 0.03 0.02 0.01 0.00 0.00 0.00 0.00 0.00 0.00 0.00 0.01 0.02 0.02 0.02 0.01
0.02 0.04 0.02 0.00 0.00 0.00 0.00 0.00 0.00 0.00 0.00 0.00 0.00 0.00 0.00 0.00 0.00 0.00 0.00 0.00 0.00 0.00 0.00 0.00 0.04 0.05 0.01 0.00 0.00 0.00 0.00 0.00 0.00 0.00 0.00 0.00 0.01 0.01 0.01 0.01 0.01 0.02 0.02
0.01 0.02 0.04 0.01 0.00 0.00 0.00 0.00 0.00 0.00 0.00 0.00 0.00 0.00 0.00 0.00 0.00 0.00 0.00 0.00 0.00 0.00 0.00 0.00 0.00 0.00 0.00 0.00 0.00 0.00 0.00 0.00 0.00 0.00 0.02 0.03 0.03 0.02 0.02 0.02 0.03 0.06 0.16
0.01 0.05 0.08 0.08 0.04 0.02 0.00 0.00 0.00 0.00 0.00 0.00 0.00 0.00 0.00 0.00 0.00 0.00 0.00 0.00 0.00 0.00 0.00 0.00 0.00 0.00 0.00 0.00 0.00 0.00 0.00 0.02 0.03 0.03 0.02 0.01 0.00 0.00 0.00 0.01 0.10 0.23 0.35
0.01 0.01 0.08 0.13 0.09 0.05 0.04 0.01 0.00 0.00 0.00 0.00 0.00 0.00 0.00 0.00 0.00 0.00 0.00 0.00 0.00 0.00 0.00 0.00 0.00 0.00 0.00 0.00 0.00 0.00 0.01 0.02 0.00 0.00 0.00 0.01 0.03 0.04 0.05 0.09 0.14 0.16 0.17
0.00 0.00 0.01 0.07 0.08 0.07 0.07 0.05 0.03 0.00 0.00 0.00 0.00 0.00 0.00 0.00 0.00 0.00 0.00 0.00 0.00 0.00 0.00 0.00 0.00 0.00 0.00 0.01 0.01 0.01 0.01 0.01 0.01 0.02 0.02 0.04 0.10 0.10 0.16 0.16 0.17 0.18 0.20
0.00 0.00 0.00 0.01 0.12 0.09 0.05 0.07 0.08 0.06 0.01 0.00 0.00 0.00 0.00 0.00 0.00 0.00 0.00 0.00 0.00 0.00 0.00 0.01 0.01 0.01 0.01 0.03 0.02 0.02 0.01 0.03 0.04 0.06 0.08 0.13 0.20 0.23 0.16 0.25 0.26 0.23 0.20
0.00 0.00 0.00 0.00 0.01 0.04 0.08 0.12 0.16 0.17 0.09 0.02 0.00 0.00 0.00 0.00 0.00 0.00 0.00 0.00 0.00 0.01 0.01 0.02 0.02 0.01 0.03 0.06 0.04 0.05 0.02 0.06 0.09 0.10 0.12 0.16 0.23 0.31 0.32 0.28 0.25 0.16 0.05
0.00 0.00 0.00 0.00 0.00 0.01 0.08 0.20 0.22 0.23 0.20 0.11 0.04 0.01 0.00 0.00 0.00 0.00 0.01 0.02 0.02 0.03 0.02 0.04 0.04 0.03 0.05 0.10 0.06 0.05 0.01 0.06 0.10 0.16 0.24 0.29 0.33 0.34 0.26 0.14 0.03 0.00 0.00
0.00 0.00 0.00 0.00 0.01 0.05 0.08 0.04 0.06 0.09 0.12 0.10 0.06 0.02 0.00 0.00 0.00 0.01 0.02 0.03 0.03 0.04 0.05 0.07 0.08 0.09 0.05 0.12 0.07 0.06 0.02 0.09 0.19 0.25 0.29 0.28 0.16 0.09 0.05 0.01 0.00 0.00 0.00
0.00 0.00 0.00 0.00 0.00 0.04 0.08 0.09 0.08 0.07 0.15 0.14 0.13 0.09 0.03 0.01 0.01 0.03 0.04 0.05 0.06 0.07 0.07 0.07 0.06 0.05 0.08 0.14 0.11 0.07 0.02 0.04 0.07 0.09 0.08 0.04 0.02 0.01 0.00 0.00 0.00 0.00 0.00
0.00 0.00 0.00 0.00 0.00 0.00 0.05 0.11 0.16 0.15 0.20 0.16 0.16 0.14 0.11 0.05 0.02 0.02 0.03 0.04 0.05 0.07 0.07 0.06 0.06 0.06 0.09 0.12 0.10 0.07 0.03 0.02 0.04 0.05 0.05 0.03 0.01 0.00 0.00 0.00 0.00 0.00 0.00
0.00 0.00 0.00 0.00 0.00 0.00 0.00 0.03 0.06 0.07 0.09 0.14 0.16 0.13 0.11 0.09 0.07 0.06 0.05 0.07 0.08 0.08 0.06 0.06 0.09 0.13 0.15 0.20 0.17 0.11 0.05 0.02 0.02 0.01 0.00 0.00 0.00 0.00 0.00 0.00 0.00 0.00 0.00
0.00 0.00 0.00 0.00 0.00 0.00 0.00 0.00 0.00 0.01 0.01 0.03 0.04 0.03 0.06 0.05 0.06 0.07 0.07 0.08 0.08 0.07 0.08 0.08 0.09 0.09 0.08 0.06 0.03 0.02 0.02 0.01 0.01 0.00 0.00 0.00 0.00 0.00 0.00 0.00 0.00 0.00 0.00
0.00 0.01 0.01 0.01 0.01 0.00 0.00 0.02 0.03 0.04 0.04 0.04 0.04 0.04 0.06 0.06 0.08 0.15 0.19 0.22 0.26 0.23 0.25 0.26 0.20 0.17 0.16 0.11 0.07 0.05 0.02 0.01 0.00 0.00 0.00 0.00 0.00 0.00 0.00 0.00 0.00 0.00 0.00
0.02 0.02 0.02 0.01 0.02 0.03 0.03 0.03 0.05 0.08 0.08 0.07 0.10 0.13 0.10 0.10 0.12 0.16 0.27 0.31 0.38 0.41 0.41 0.42 0.31 0.22 0.16 0.07 0.03 0.01 0.00 0.00 0.01 0.01 0.00 0.00 0.00 0.00 0.00 0.00 0.00 0.00 0.00